^^
Saratoga-Weather Station Historical Data
Daily Summary for April 12, 2020 Units:  Metric    English   Both
Daily Weekly Monthly Yearly Custom
  High: Low: Average:
Temperature: 13.3 °C 9.7 °C 11.6 °C
Dew Point: 10.5 °C 8.1 °C 9 °C
Humidity: 91% 77% 84%
Wind Speed: 33.8km/h 0km/h 10.4km/h
Wind Gust: 41.8km/h - -
Wind- - West
Pressure: 1014.2 hPa 1011.2 hPa -
Precipitation: 1.0 mm    
Historical Graphs
 
 
Tabular Data for April 12, 2020
Time Temperature Dew Point Pressure Wind Wind Speed Wind Gust Humidity Rainfall Rate (Hourly) solar
00:00 13.3 °C 10.5 °C 1013.5 hPa SW 13 km/h 22.5 km/h 83% 0.0 mm 0 W/m2
00:05 13.3 °C 10.5 °C 1013.2 hPa NNW 3.2 km/h 4.8 km/h 83% 0.0 mm 0 W/m2
00:10 13.3 °C 10.5 °C 1013.2 hPa WSW 6.4 km/h 16.1 km/h 83% 0.0 mm 0 W/m2
00:15 13.3 °C 10.5 °C 1013.2 hPa WNW 16.3 km/h 19.3 km/h 83% 0.0 mm 0 W/m2
00:20 13.3 °C 10.5 °C 1013.2 hPa Calm   6.4 km/h 83% 0.0 mm 0 W/m2
00:26 13.3 °C 10.5 °C 1013.2 hPa WNW 4.7 km/h 19.3 km/h 83% 0.0 mm 0 W/m2
00:31 13.3 °C 10.5 °C 1013.2 hPa WSW 6.4 km/h 27.4 km/h 83% 0.0 mm 0 W/m2
00:36 13.3 °C 10.5 °C 1013.2 hPa NE 1.4 km/h 22.5 km/h 83% 0.0 mm 0 W/m2
00:41 13.3 °C 10.5 °C 1012.9 hPa NW 13 km/h 12.9 km/h 83% 0.0 mm 0 W/m2
00:46 13.3 °C 10.3 °C 1013.2 hPa South 6.4 km/h 24.1 km/h 82% 0.0 mm 0 W/m2
00:51 13.3 °C 10.3 °C 1012.9 hPa NNW 7.9 km/h 20.9 km/h 82% 0.0 mm 0 W/m2
00:56 13.3 °C 10.1 °C 1012.9 hPa WNW 3.2 km/h 24.1 km/h 81% 0.0 mm 0 W/m2
01:01 13.3 °C 10.1 °C 1012.9 hPa WNW 13 km/h 20.9 km/h 81% 0.0 mm 0 W/m2
01:06 13.2 °C 9.8 °C 1012.9 hPa NNW 6.4 km/h 16.1 km/h 80% 0.0 mm 0 W/m2
01:11 13.2 °C 9.8 °C 1012.9 hPa NNE 6.4 km/h 14.5 km/h 80% 0.0 mm 0 W/m2
01:16 13.1 °C 9.7 °C 1012.9 hPa NE 7.9 km/h 14.5 km/h 80% 0.0 mm 0 W/m2
01:21 13 °C 9.6 °C 1012.9 hPa WNW 27.4 km/h 27.4 km/h 80% 0.0 mm 0 W/m2
01:26 12.9 °C 9.3 °C 1012.9 hPa West 9.7 km/h 11.3 km/h 79% 0.0 mm 0 W/m2
01:31 12.8 °C 9.2 °C 1012.9 hPa NNW 7.9 km/h 27.4 km/h 79% 0.0 mm 0 W/m2
01:36 12.8 °C 9.2 °C 1012.9 hPa WNW 6.4 km/h 12.9 km/h 79% 0.0 mm 0 W/m2
01:41 12.7 °C 9.2 °C 1012.9 hPa NW 7.9 km/h 16.1 km/h 79% 0.0 mm 0 W/m2
01:46 12.7 °C 9.2 °C 1012.9 hPa NW 4.7 km/h 16.1 km/h 79% 0.0 mm 0 W/m2
01:51 12.7 °C 9.2 °C 1013.2 hPa WNW 17.7 km/h 20.9 km/h 79% 0.0 mm 0 W/m2
01:56 12.6 °C 9.1 °C 1012.9 hPa WNW 9.7 km/h 16.1 km/h 79% 0.0 mm 0 W/m2
02:01 12.6 °C 9.1 °C 1012.9 hPa West 11.1 km/h 16.1 km/h 79% 0.0 mm 0 W/m2
02:07 12.5 °C 8.8 °C 1012.9 hPa SW 16.3 km/h 19.3 km/h 78% 0.0 mm 0 W/m2
02:12 12.4 °C 8.7 °C 1012.9 hPa WNW 16.3 km/h 19.3 km/h 78% 0.0 mm 0 W/m2
02:17 12.3 °C 8.6 °C 1012.9 hPa NW 6.4 km/h 19.3 km/h 78% 0.0 mm 0 W/m2
02:22 12.3 °C 8.6 °C 1012.9 hPa WNW 16.3 km/h 22.5 km/h 78% 0.0 mm 0 W/m2
02:27 12.2 °C 8.5 °C 1012.9 hPa WSW 4.7 km/h 14.5 km/h 78% 0.0 mm 0 W/m2
02:32 12.2 °C 8.5 °C 1012.9 hPa WNW 11.1 km/h 14.5 km/h 78% 0.0 mm 0 W/m2
02:37 12.2 °C 8.5 °C 1012.9 hPa WNW 11.1 km/h 12.9 km/h 78% 0.0 mm 0 W/m2
02:42 12.2 °C 8.5 °C 1012.5 hPa WNW 14.5 km/h 14.5 km/h 78% 0.0 mm 0 W/m2
02:47 12.2 °C 8.5 °C 1012.5 hPa SW 4.7 km/h 11.3 km/h 78% 0.0 mm 0 W/m2
02:52 12.2 °C 8.3 °C 1012.5 hPa WNW 14.3 km/h 17.7 km/h 77% 0.0 mm 0 W/m2
02:57 12.2 °C 8.3 °C 1012.5 hPa West 19.5 km/h 32.2 km/h 77% 0.0 mm 0 W/m2
03:02 12.2 °C 8.3 °C 1012.5 hPa WNW 7.9 km/h 9.7 km/h 77% 0.0 mm 0 W/m2
03:07 12.2 °C 8.3 °C 1012.5 hPa NW 9.7 km/h 32.2 km/h 77% 0.0 mm 0 W/m2
03:12 12.2 °C 8.3 °C 1012.2 hPa WSW 7.9 km/h 14.5 km/h 77% 0.0 mm 0 W/m2
03:17 12.2 °C 8.3 °C 1012.2 hPa NNW 1.4 km/h 19.3 km/h 77% 0.0 mm 0 W/m2
03:22 12.2 °C 8.3 °C 1012.2 hPa NW 17.7 km/h 24.1 km/h 77% 0.0 mm 0 W/m2
03:27 12.2 °C 8.3 °C 1012.2 hPa WNW 14.3 km/h 20.9 km/h 77% 0.0 mm 0 W/m2
03:32 12.2 °C 8.3 °C 1011.9 hPa WNW 6.4 km/h 11.3 km/h 77% 0.0 mm 0 W/m2
03:37 12.2 °C 8.3 °C 1011.9 hPa WSW 11.1 km/h 14.5 km/h 77% 0.0 mm 0 W/m2
03:42 12.2 °C 8.3 °C 1011.9 hPa WNW 11.1 km/h 19.3 km/h 77% 0.0 mm 0 W/m2
03:47 12.2 °C 8.5 °C 1011.9 hPa WNW 11.1 km/h 16.1 km/h 78% 0.0 mm 0 W/m2
03:52 12.1 °C 8.4 °C 1011.9 hPa WNW 6.4 km/h 14.5 km/h 78% 0.0 mm 0 W/m2
03:57 12.1 °C 8.6 °C 1011.5 hPa ENE 6.4 km/h 9.7 km/h 79% 0.0 mm 0 W/m2
04:02 12.1 °C 8.6 °C 1011.9 hPa WSW 7.9 km/h 19.3 km/h 79% 0.0 mm 0 W/m2
04:07 12 °C 8.5 °C 1011.9 hPa NNW 9.7 km/h 14.5 km/h 79% 0.0 mm 0 W/m2
04:12 12 °C 8.5 °C 1011.9 hPa West 16.3 km/h 32.2 km/h 79% 0.0 mm 0 W/m2
04:17 12 °C 8.7 °C 1011.9 hPa SSW 13 km/h 16.1 km/h 80% 0.0 mm 0 W/m2
04:22 12 °C 8.7 °C 1011.9 hPa West 19.5 km/h 20.9 km/h 80% 0.0 mm 0 W/m2
04:27 12 °C 8.7 °C 1011.9 hPa North 9.7 km/h 11.3 km/h 80% 0.0 mm 0 W/m2
04:32 12 °C 8.8 °C 1011.5 hPa NNW 7.9 km/h 17.7 km/h 81% 0.0 mm 0 W/m2
04:37 11.9 °C 8.7 °C 1011.9 hPa WNW 13 km/h 14.5 km/h 81% 0.0 mm 0 W/m2
04:42 11.9 °C 8.9 °C 1011.5 hPa WSW 13 km/h 20.9 km/h 82% 0.0 mm 0 W/m2
04:47 11.9 °C 8.9 °C 1011.2 hPa NNW 9.7 km/h 17.7 km/h 82% 0.0 mm 0 W/m2
04:57 11.9 °C 9.1 °C 1011.2 hPa NW 3.2 km/h 20.9 km/h 83% 0.0 mm 0 W/m2
05:02 11.9 °C 9.1 °C 1011.2 hPa WNW 4.7 km/h 14.5 km/h 83% 0.0 mm 0 W/m2
05:07 11.8 °C 9 °C 1011.5 hPa West 28.8 km/h 29 km/h 83% 0.0 mm 0 W/m2
05:12 11.8 °C 9.2 °C 1011.5 hPa North 4.7 km/h 22.5 km/h 84% 0.0 mm 0 W/m2
05:17 11.8 °C 9.2 °C 1011.2 hPa NW 4.7 km/h 22.5 km/h 84% 0.0 mm 0 W/m2
05:22 11.9 °C 9.3 °C 1011.5 hPa West 9.7 km/h 14.5 km/h 84% 0.0 mm 0 W/m2
05:27 11.9 °C 9.3 °C 1011.5 hPa NNW 6.4 km/h 14.5 km/h 84% 0.0 mm 0 W/m2
05:37 11.9 °C 9.3 °C 1011.5 hPa NW 16.3 km/h 20.9 km/h 84% 0.0 mm 0 W/m2
05:42 11.9 °C 9.3 °C 1011.5 hPa WNW 7.9 km/h 29 km/h 84% 0.0 mm 0 W/m2
05:48 11.9 °C 9.3 °C 1011.9 hPa West 11.1 km/h 11.3 km/h 84% 0.0 mm 0 W/m2
05:53 11.8 °C 9.4 °C 1011.5 hPa WNW 11.1 km/h 29 km/h 85% 0.0 mm 0 W/m2
05:58 11.8 °C 9.4 °C 1011.5 hPa WSW 6.4 km/h 14.5 km/h 85% 0.0 mm 0 W/m2
06:03 11.7 °C 9.3 °C 1011.5 hPa NNW 6.4 km/h 14.5 km/h 85% 0.0 mm 0 W/m2
06:08 11.7 °C 9.4 °C 1011.5 hPa WNW 4.7 km/h 20.9 km/h 86% 0.0 mm 0 W/m2
06:13 11.6 °C 9.3 °C 1011.5 hPa North 7.9 km/h 16.1 km/h 86% 0.0 mm 0 W/m2
06:18 11.4 °C 9.3 °C 1011.5 hPa NW 3.2 km/h 17.7 km/h 87% 0.0 mm 0 W/m2
06:23 11.4 °C 9.5 °C 1011.5 hPa NW 3.2 km/h 11.3 km/h 88% 0.0 mm 0 W/m2
06:28 11.3 °C 9.4 °C 1011.5 hPa SSW 4.7 km/h 12.9 km/h 88% 0.0 mm 0 W/m2
06:33 11.3 °C 9.6 °C 1011.5 hPa WNW 3.2 km/h 17.7 km/h 89% 0.2 mm 0 W/m2
06:38 11.3 °C 9.6 °C 1011.5 hPa West 24.1 km/h 24.1 km/h 89% 0.2 mm 0 W/m2
06:43 11.3 °C 9.6 °C 1011.5 hPa NW 9.7 km/h 14.5 km/h 89% 0.2 mm 0 W/m2
06:48 11.4 °C 9.5 °C 1011.2 hPa NNW 4.7 km/h 17.7 km/h 88% 0.2 mm 0 W/m2
06:53 11.4 °C 9.5 °C 1011.2 hPa WNW 3.2 km/h 11.3 km/h 88% 0.2 mm 0 W/m2
06:58 11.5 °C 9.6 °C 1011.5 hPa WNW 16.3 km/h 19.3 km/h 88% 0.2 mm 0 W/m2
07:03 11.5 °C 9.6 °C 1011.5 hPa SW 9.7 km/h 20.9 km/h 88% 0.2 mm 0 W/m2
07:08 11.4 °C 9.5 °C 1011.5 hPa WNW 14.3 km/h 19.3 km/h 88% 0.2 mm 5 W/m2
07:13 11.4 °C 9.5 °C 1011.2 hPa WNW 4.7 km/h 27.4 km/h 88% 0.2 mm 7 W/m2
07:19 11.4 °C 9.5 °C 1011.2 hPa WNW 17.7 km/h 22.5 km/h 88% 0.2 mm 7 W/m2
07:24 11.5 °C 9.4 °C 1011.5 hPa WNW 13 km/h 27.4 km/h 87% 0.2 mm 11 W/m2
07:29 11.6 °C 9.5 °C 1011.5 hPa NNW 7.9 km/h 17.7 km/h 87% 0.2 mm 23 W/m2
07:34 11.6 °C 9.5 °C 1011.5 hPa North 3.2 km/h 19.3 km/h 87% 0.0 mm 30 W/m2
07:39 11.6 °C 9.5 °C 1011.5 hPa NNW 6.4 km/h 14.5 km/h 87% 0.0 mm 35 W/m2
07:44 11.6 °C 9.5 °C 1011.5 hPa NNE 4.7 km/h 12.9 km/h 87% 0.0 mm 35 W/m2
07:49 11.6 °C 9.5 °C 1011.5 hPa NE 3.2 km/h 8 km/h 87% 0.0 mm 26 W/m2
07:54 11.5 °C 9.4 °C 1011.9 hPa NW 14.3 km/h 14.5 km/h 87% 0.2 mm 39 W/m2
07:59 11.5 °C 9.4 °C 1011.9 hPa NW 13 km/h 16.1 km/h 87% 0.2 mm 63 W/m2
08:04 11.5 °C 9.4 °C 1011.9 hPa WNW 11.1 km/h 20.9 km/h 87% 0.2 mm 49 W/m2
08:09 11.6 °C 9.5 °C 1011.5 hPa NNW 17.7 km/h 22.5 km/h 87% 0.2 mm 63 W/m2
08:14 11.5 °C 9.6 °C 1012.2 hPa WSW 7.9 km/h 17.7 km/h 88% 0.2 mm 47 W/m2
08:19 11.2 °C 9.3 °C 1012.9 hPa WNW 33.8 km/h 41.8 km/h 88% 0.5 mm 26 W/m2
08:24 10.7 °C 9 °C 1012.9 hPa West 11.1 km/h 17.7 km/h 89% 0.5 mm 53 W/m2
08:29 10.2 °C 8.3 °C 1012.9 hPa WNW 17.7 km/h 33.8 km/h 88% 0.5 mm 69 W/m2
08:34 9.8 °C 8.1 °C 1012.9 hPa West 16.3 km/h 22.5 km/h 89% 0.5 mm 120 W/m2
08:40 9.7 °C 8.1 °C 1012.9 hPa NNW 13 km/h 25.7 km/h 90% 0.5 mm 135 W/m2
08:45 9.7 °C 8.1 °C 1012.9 hPa NNW 13 km/h 27.4 km/h 90% 0.5 mm 135 W/m2
08:50 9.7 °C 8.1 °C 1013.2 hPa West 13 km/h 22.5 km/h 90% 0.5 mm 137 W/m2
08:55 9.7 °C 8.1 °C 1013.2 hPa WSW 17.7 km/h 27.4 km/h 90% 0.2 mm 130 W/m2
09:00 9.8 °C 8.2 °C 1013.2 hPa NW 11.1 km/h 19.3 km/h 90% 0.2 mm 243 W/m2
09:05 9.8 °C 8.2 °C 1013.5 hPa West 14.3 km/h 25.7 km/h 90% 0.2 mm 227 W/m2
09:10 9.8 °C 8.2 °C 1013.2 hPa NNW 13 km/h 19.3 km/h 90% 0.2 mm 190 W/m2
09:15 9.9 °C 8.3 °C 1013.5 hPa SW 16.3 km/h 25.7 km/h 90% 0.2 mm 188 W/m2
09:20 9.9 °C 8.3 °C 1013.5 hPa West 14.3 km/h 19.3 km/h 90% 0.0 mm 265 W/m2
09:25 9.9 °C 8.5 °C 1013.5 hPa WNW 16.3 km/h 25.7 km/h 91% 0.0 mm 276 W/m2
09:30 10.1 °C 8.5 °C 1013.5 hPa West 16.3 km/h 24.1 km/h 90% 0.0 mm 255 W/m2
09:35 10.1 °C 8.5 °C 1013.5 hPa NW 14.3 km/h 25.7 km/h 90% 0.0 mm 323 W/m2
09:40 10.1 °C 8.5 °C 1013.5 hPa WNW 17.7 km/h 17.7 km/h 90% 0.0 mm 223 W/m2
09:45 10.1 °C 8.5 °C 1013.5 hPa SW 9.7 km/h 17.7 km/h 90% 0.0 mm 167 W/m2
09:50 10.1 °C 8.5 °C 1013.5 hPa WNW 9.7 km/h 24.1 km/h 90% 0.0 mm 156 W/m2
09:55 10 °C 8.4 °C 1013.9 hPa West 9.7 km/h 20.9 km/h 90% 0.0 mm 199 W/m2
10:00 10.1 °C 8.7 °C 1013.9 hPa NW 4.7 km/h 9.7 km/h 91% 0.0 mm 165 W/m2
10:05 10 °C 8.4 °C 1013.9 hPa West 6.4 km/h 27.4 km/h 90% 0.2 mm 107 W/m2
10:10 9.9 °C 8.3 °C 1013.9 hPa West 13 km/h 16.1 km/h 90% 0.2 mm 148 W/m2
10:15 9.8 °C 8.2 °C 1013.9 hPa WNW 13 km/h 27.4 km/h 90% 0.2 mm 81 W/m2
10:20 9.8 °C 8.4 °C 1013.9 hPa West 3.2 km/h 4.8 km/h 91% 0.2 mm 93 W/m2
10:25 9.8 °C 8.4 °C 1014.2 hPa West 16.3 km/h 17.7 km/h 91% 0.2 mm 104 W/m2
10:30 9.8 °C 8.4 °C 1014.2 hPa WNW 7.9 km/h 12.9 km/h 91% 0.2 mm 211 W/m2
10:35 9.8 °C 8.4 °C 1014.2 hPa NW 13 km/h 12.9 km/h 91% 0.2 mm 162 W/m2
10:40 9.9 °C 8.5 °C 1014.2 hPa WNW 4.7 km/h 17.7 km/h 91% 0.2 mm 183 W/m2
10:45 9.9 °C 8.5 °C 1014.2 hPa West 16.3 km/h 16.1 km/h 91% 0.2 mm 162 W/m2
10:50 9.9 °C 8.5 °C 1014.2 hPa WNW 3.2 km/h 17.7 km/h 91% 0.2 mm 274 W/m2
10:55 10.1 °C 8.7 °C 1014.2 hPa West 16.3 km/h 16.1 km/h 91% 0.2 mm 476 W/m2
11:00 10.2 °C 8.6 °C 1014.2 hPa WSW 6.4 km/h 20.9 km/h 90% 0.5 mm 362 W/m2
11:06 10.3 °C 8.7 °C 1014.2 hPa West 6.4 km/h 16.1 km/h 90% 0.2 mm 251 W/m2
Juneau County Weather
Compliments of Weather Underground - 2 mb